Year,Month,Day,Hour,Minute,Value (Times are PST for temperature in C)
2004,04,04,00,00,10.10
2004,04,04,00,01,10.20
2004,04,04,00,02,10.10
2004,04,04,00,03,10.20
2004,04,04,00,04,10.20
2004,04,04,00,05,10.20
2004,04,04,00,06,10.20
2004,04,04,00,07,10.10
2004,04,04,00,08,10.10
2004,04,04,00,09,10.10
2004,04,04,00,10,10.10
2004,04,04,00,11,10.00
2004,04,04,00,12,10.10
2004,04,04,00,13,10.00
2004,04,04,00,14,10.00
2004,04,04,00,15,9.90
2004,04,04,00,16,9.90
2004,04,04,00,17,9.90
2004,04,04,00,18,9.90
2004,04,04,00,19,9.80
2004,04,04,00,20,9.80
2004,04,04,00,21,9.80
2004,04,04,00,22,9.80
2004,04,04,00,23,9.70
2004,04,04,00,24,9.80
2004,04,04,00,25,9.70
2004,04,04,00,26,9.70
2004,04,04,00,27,9.70
2004,04,04,00,28,9.70
2004,04,04,00,29,9.70
2004,04,04,00,30,9.70
2004,04,04,00,31,9.70
2004,04,04,00,32,9.70
2004,04,04,00,33,9.70
2004,04,04,00,34,9.70
2004,04,04,00,35,9.70
2004,04,04,00,36,9.70
2004,04,04,00,37,9.60
2004,04,04,00,38,9.50
2004,04,04,00,39,9.50
2004,04,04,00,40,9.60
2004,04,04,00,41,9.60
2004,04,04,00,42,9.60
2004,04,04,00,43,9.60
2004,04,04,00,44,9.60
2004,04,04,00,45,9.50
2004,04,04,00,46,9.60
2004,04,04,00,47,9.50
2004,04,04,00,48,9.50
2004,04,04,00,49,9.50
2004,04,04,00,50,9.50
2004,04,04,00,51,9.50
2004,04,04,00,52,9.50
2004,04,04,00,53,9.50
2004,04,04,00,54,9.40
2004,04,04,00,55,9.50
2004,04,04,00,56,9.40
2004,04,04,00,57,9.50
2004,04,04,00,58,9.30
2004,04,04,00,59,9.30
2004,04,04,01,00,9.20
2004,04,04,01,01,9.20
2004,04,04,01,02,9.20
2004,04,04,01,03,9.20
2004,04,04,01,04,9.30
2004,04,04,01,05,9.20
2004,04,04,01,06,9.30
2004,04,04,01,07,9.20
2004,04,04,01,08,9.30
2004,04,04,01,09,9.20
2004,04,04,01,10,9.30
2004,04,04,01,11,9.20
2004,04,04,01,12,9.20
2004,04,04,01,13,9.20
2004,04,04,01,14,9.20
2004,04,04,01,15,9.20
2004,04,04,01,16,9.20
2004,04,04,01,17,9.20
2004,04,04,01,18,9.20
2004,04,04,01,19,9.20
2004,04,04,01,20,9.20
2004,04,04,01,21,9.20
2004,04,04,01,22,9.20
2004,04,04,01,23,9.20
2004,04,04,01,24,9.20
2004,04,04,01,25,9.30
2004,04,04,01,26,9.20
2004,04,04,01,27,9.20
2004,04,04,01,28,9.20
2004,04,04,01,29,9.20
2004,04,04,01,30,9.10
2004,04,04,01,31,9.10
2004,04,04,01,32,9.10
2004,04,04,01,33,9.10
2004,04,04,01,34,9.00
2004,04,04,01,35,9.00
2004,04,04,01,36,9.00
2004,04,04,01,37,9.00
2004,04,04,01,38,9.00
2004,04,04,01,39,9.10
2004,04,04,01,40,9.00
2004,04,04,01,41,9.10
2004,04,04,01,42,9.10
2004,04,04,01,43,9.10
2004,04,04,01,44,9.00
2004,04,04,01,45,9.10
2004,04,04,01,46,9.00
2004,04,04,01,47,9.10
2004,04,04,01,48,9.10
2004,04,04,01,49,9.00
2004,04,04,01,50,9.00
2004,04,04,01,51,9.00
2004,04,04,01,52,9.00
2004,04,04,01,53,9.00
2004,04,04,01,54,9.00
2004,04,04,01,55,8.90
2004,04,04,01,56,8.90
2004,04,04,01,57,8.90
2004,04,04,01,58,8.90
2004,04,04,01,59,8.90
2004,04,04,03,00,9.00
2004,04,04,03,01,8.90
2004,04,04,03,02,9.00
2004,04,04,03,03,8.90
2004,04,04,03,04,8.90
2004,04,04,03,05,8.80
2004,04,04,03,06,8.90
2004,04,04,03,07,8.90
2004,04,04,03,08,8.90
2004,04,04,03,09,8.80
2004,04,04,03,10,8.90
2004,04,04,03,11,8.80
2004,04,04,03,12,8.90
2004,04,04,03,13,8.80
2004,04,04,03,14,8.80
2004,04,04,03,15,8.80
2004,04,04,03,16,8.80
2004,04,04,03,17,8.80
2004,04,04,03,18,8.90
2004,04,04,03,19,8.90
2004,04,04,03,20,8.90
2004,04,04,03,21,8.90
2004,04,04,03,22,8.90
2004,04,04,03,23,8.90
2004,04,04,03,24,8.90
2004,04,04,03,25,8.90
2004,04,04,03,26,8.90
2004,04,04,03,27,8.90
2004,04,04,03,28,8.90
2004,04,04,03,29,8.90
2004,04,04,03,30,8.80
2004,04,04,03,31,8.90
2004,04,04,03,32,8.90
2004,04,04,03,33,8.80
2004,04,04,03,34,8.80
2004,04,04,03,35,8.90
2004,04,04,03,36,8.90
2004,04,04,03,37,8.90
2004,04,04,03,38,8.80
2004,04,04,03,39,8.90
2004,04,04,03,40,8.90
2004,04,04,03,41,8.90
2004,04,04,03,42,8.80
2004,04,04,03,43,8.70
2004,04,04,03,44,8.70
2004,04,04,03,45,8.70
2004,04,04,03,46,8.70
2004,04,04,03,47,8.80
2004,04,04,03,48,8.80
2004,04,04,03,49,8.80
2004,04,04,03,50,8.70
2004,04,04,03,51,8.80
2004,04,04,03,52,8.70
2004,04,04,03,53,8.80
2004,04,04,03,54,8.90
2004,04,04,03,55,8.80
2004,04,04,03,56,8.70
2004,04,04,03,57,8.80
2004,04,04,03,58,8.80
2004,04,04,03,59,8.80
2004,04,04,04,00,8.90
2004,04,04,04,01,8.80
2004,04,04,04,02,8.90
2004,04,04,04,03,8.80
2004,04,04,04,04,8.80
2004,04,04,04,05,8.80
2004,04,04,04,06,8.90
2004,04,04,04,07,8.80
2004,04,04,04,08,8.80
2004,04,04,04,09,8.80
2004,04,04,04,10,8.80
2004,04,04,04,11,8.80
2004,04,04,04,12,8.70
2004,04,04,04,13,8.70
2004,04,04,04,14,8.70
2004,04,04,04,15,8.70
2004,04,04,04,16,8.70
2004,04,04,04,17,8.70
2004,04,04,04,18,8.70
2004,04,04,04,19,8.70
2004,04,04,04,20,8.70
2004,04,04,04,21,8.70
2004,04,04,04,22,8.70
2004,04,04,04,23,8.70
2004,04,04,04,24,8.70
2004,04,04,04,25,8.60
2004,04,04,04,26,8.60
2004,04,04,04,27,8.60
2004,04,04,04,28,8.60
2004,04,04,04,29,8.60
2004,04,04,04,30,8.60
2004,04,04,04,31,8.60
2004,04,04,04,32,8.70
2004,04,04,04,33,8.60
2004,04,04,04,34,8.60
2004,04,04,04,35,8.70
2004,04,04,04,36,8.70
2004,04,04,04,37,8.70
2004,04,04,04,38,8.70
2004,04,04,04,39,8.60
2004,04,04,04,40,8.50
2004,04,04,04,41,8.50
2004,04,04,04,42,8.50
2004,04,04,04,43,8.60
2004,04,04,04,44,8.60
2004,04,04,04,45,8.60
2004,04,04,04,46,8.70
2004,04,04,04,47,8.70
2004,04,04,04,48,8.70
2004,04,04,04,49,8.70
2004,04,04,04,50,8.70
2004,04,04,04,51,8.70
2004,04,04,04,52,8.80
2004,04,04,04,53,8.70
2004,04,04,04,54,8.70
2004,04,04,04,55,8.60
2004,04,04,04,56,8.50
2004,04,04,04,57,8.60
2004,04,04,04,58,8.60
2004,04,04,04,59,8.70
2004,04,04,05,00,8.70
2004,04,04,05,01,8.60
2004,04,04,05,02,8.60
2004,04,04,05,03,8.70
2004,04,04,05,04,8.70
2004,04,04,05,05,8.60
2004,04,04,05,06,8.50
2004,04,04,05,07,8.50
2004,04,04,05,08,8.50
2004,04,04,05,09,8.60
2004,04,04,05,10,8.60
2004,04,04,05,11,8.70
2004,04,04,05,12,8.60
2004,04,04,05,13,8.70
2004,04,04,05,14,8.70
2004,04,04,05,15,8.70
2004,04,04,05,16,8.70
2004,04,04,05,17,8.70
2004,04,04,05,18,8.70
2004,04,04,05,19,8.60
2004,04,04,05,20,8.50
2004,04,04,05,21,8.50
2004,04,04,05,22,8.50
2004,04,04,05,23,8.40
2004,04,04,05,24,8.40
2004,04,04,05,25,8.50
2004,04,04,05,26,8.50
2004,04,04,05,27,8.50
2004,04,04,05,28,8.50
2004,04,04,05,29,8.50
2004,04,04,05,30,8.50
2004,04,04,05,31,8.50
2004,04,04,05,32,8.50
2004,04,04,05,33,8.50
2004,04,04,05,34,8.40
2004,04,04,05,35,8.50
2004,04,04,05,36,8.40
2004,04,04,05,37,8.50
2004,04,04,05,38,8.50
2004,04,04,05,39,8.50
2004,04,04,05,40,8.50
2004,04,04,05,41,8.50
2004,04,04,05,42,8.50
2004,04,04,05,43,8.50
2004,04,04,05,44,8.50
2004,04,04,05,45,8.50
2004,04,04,05,46,8.50
2004,04,04,05,47,8.50
2004,04,04,05,48,8.40
2004,04,04,05,49,8.40
2004,04,04,05,50,8.40
2004,04,04,05,51,8.40
2004,04,04,05,52,8.40
2004,04,04,05,53,8.50
2004,04,04,05,54,8.50
2004,04,04,05,55,8.50
2004,04,04,05,56,8.40
2004,04,04,05,57,8.40
2004,04,04,05,58,8.40
2004,04,04,05,59,8.40
2004,04,04,06,00,8.40
2004,04,04,06,01,8.40
2004,04,04,06,02,8.40
2004,04,04,06,03,8.40
2004,04,04,06,04,8.40
2004,04,04,06,05,8.40
2004,04,04,06,06,8.40
2004,04,04,06,07,8.40
2004,04,04,06,08,8.40
2004,04,04,06,09,8.40
2004,04,04,06,10,8.30
2004,04,04,06,11,8.20
2004,04,04,06,12,8.20
2004,04,04,06,13,8.30
2004,04,04,06,14,8.30
2004,04,04,06,15,8.30
2004,04,04,06,16,8.30
2004,04,04,06,17,8.40
2004,04,04,06,18,8.40
2004,04,04,06,19,8.40
2004,04,04,06,20,8.40
2004,04,04,06,21,8.40
2004,04,04,06,22,8.30
2004,04,04,06,23,8.30
2004,04,04,06,24,8.20
2004,04,04,06,25,8.20
2004,04,04,06,26,8.20
2004,04,04,06,27,8.20
2004,04,04,06,28,8.20
2004,04,04,06,29,8.20
2004,04,04,06,30,8.20
2004,04,04,06,31,8.20
2004,04,04,06,32,8.20
2004,04,04,06,33,8.20
2004,04,04,06,34,8.20
2004,04,04,06,35,8.10
2004,04,04,06,36,8.10
2004,04,04,06,37,8.10
2004,04,04,06,38,8.10
2004,04,04,06,39,8.00
2004,04,04,06,40,8.00
2004,04,04,06,41,7.90
2004,04,04,06,42,7.90
2004,04,04,06,43,7.90
2004,04,04,06,44,7.90
2004,04,04,06,45,8.00
2004,04,04,06,46,8.00
2004,04,04,06,47,8.00
2004,04,04,06,48,8.10
2004,04,04,06,49,8.00
2004,04,04,06,50,8.00
2004,04,04,06,51,8.00
2004,04,04,06,52,8.00
2004,04,04,06,53,8.00
2004,04,04,06,54,8.00
2004,04,04,06,55,8.00
2004,04,04,06,56,8.00
2004,04,04,06,57,8.00
2004,04,04,06,58,8.00
2004,04,04,06,59,8.00
2004,04,04,07,00,8.00
2004,04,04,07,01,8.00
2004,04,04,07,02,8.10
2004,04,04,07,03,8.10
2004,04,04,07,04,8.10
2004,04,04,07,05,8.20
2004,04,04,07,06,8.20
2004,04,04,07,07,8.20
2004,04,04,07,08,8.30
2004,04,04,07,09,8.30
2004,04,04,07,10,8.40
2004,04,04,07,11,8.40
2004,04,04,07,12,8.40
2004,04,04,07,13,8.50
2004,04,04,07,14,8.50
2004,04,04,07,15,8.60
2004,04,04,07,16,8.60
2004,04,04,07,17,8.60
2004,04,04,07,18,8.60
2004,04,04,07,19,8.60
2004,04,04,07,20,8.70
2004,04,04,07,21,8.70
2004,04,04,07,22,8.70
2004,04,04,07,23,8.80
2004,04,04,07,24,8.80
2004,04,04,07,25,8.90
2004,04,04,07,26,9.00
2004,04,04,07,27,9.00
2004,04,04,07,28,9.00
2004,04,04,07,29,9.10
2004,04,04,07,30,9.10
2004,04,04,07,31,9.10
2004,04,04,07,32,9.20
2004,04,04,07,33,9.20
2004,04,04,07,34,9.20
2004,04,04,07,35,9.30
2004,04,04,07,36,9.30
2004,04,04,07,37,9.30
2004,04,04,07,38,9.40
2004,04,04,07,39,9.50
2004,04,04,07,40,9.50
2004,04,04,07,41,9.60
2004,04,04,07,42,9.70
2004,04,04,07,43,9.70
2004,04,04,07,44,9.70
2004,04,04,07,45,9.70
2004,04,04,07,46,9.70
2004,04,04,07,47,9.80
2004,04,04,07,48,9.80
2004,04,04,07,49,9.90
2004,04,04,07,50,9.90
2004,04,04,07,51,10.00
2004,04,04,07,52,10.10
2004,04,04,07,53,10.10
2004,04,04,07,54,10.10
2004,04,04,07,55,10.20
2004,04,04,07,56,10.20
2004,04,04,07,57,10.30
2004,04,04,07,58,10.30
2004,04,04,07,59,10.40
2004,04,04,08,00,10.40
2004,04,04,08,01,10.40
2004,04,04,08,02,10.40
2004,04,04,08,03,10.30
2004,04,04,08,04,10.20
2004,04,04,08,05,10.20
2004,04,04,08,06,10.20
2004,04,04,08,07,10.20
2004,04,04,08,08,10.30
2004,04,04,08,09,10.40
2004,04,04,08,10,10.30
2004,04,04,08,11,10.30
2004,04,04,08,12,10.30
2004,04,04,08,13,10.30
2004,04,04,08,14,10.30
2004,04,04,08,15,10.40
2004,04,04,08,16,10.40
2004,04,04,08,17,10.40
2004,04,04,08,18,10.30
2004,04,04,08,19,10.20
2004,04,04,08,20,10.20
2004,04,04,08,21,10.10
2004,04,04,08,22,10.10
2004,04,04,08,23,10.10
2004,04,04,08,24,10.10
2004,04,04,08,25,10.10
2004,04,04,08,26,10.20
2004,04,04,08,27,10.30
2004,04,04,08,28,10.40
2004,04,04,08,29,10.40
2004,04,04,08,30,10.40
2004,04,04,08,31,10.50
2004,04,04,08,32,10.40
2004,04,04,08,33,10.40
2004,04,04,08,34,10.50
2004,04,04,08,35,10.60
2004,04,04,08,36,10.70
2004,04,04,08,37,10.80
2004,04,04,08,38,10.90
2004,04,04,08,39,10.80
2004,04,04,08,40,10.90
2004,04,04,08,41,10.90
2004,04,04,08,42,10.90
2004,04,04,08,43,10.90
2004,04,04,08,44,10.90
2004,04,04,08,45,11.00
2004,04,04,08,46,11.00
2004,04,04,08,47,11.10
2004,04,04,08,48,11.10
2004,04,04,08,49,11.10
2004,04,04,08,50,11.20
2004,04,04,08,51,11.30
2004,04,04,08,52,11.40
2004,04,04,08,53,11.40
2004,04,04,08,54,11.50
2004,04,04,08,55,11.60
2004,04,04,08,56,11.60
2004,04,04,08,57,11.70
2004,04,04,08,58,11.80
2004,04,04,08,59,11.90
2004,04,04,09,00,12.00
2004,04,04,09,01,12.00
2004,04,04,09,02,12.00
2004,04,04,09,03,12.00
2004,04,04,09,04,12.00
2004,04,04,09,05,12.10
2004,04,04,09,06,12.00
2004,04,04,09,07,12.10
2004,04,04,09,08,12.20
2004,04,04,09,09,12.10
2004,04,04,09,10,12.10
2004,04,04,09,11,12.10
2004,04,04,09,12,12.00
2004,04,04,09,13,12.10
2004,04,04,09,14,12.00
2004,04,04,09,15,12.00
2004,04,04,09,16,12.00
2004,04,04,09,17,12.10
2004,04,04,09,18,12.10
2004,04,04,09,19,12.10
2004,04,04,09,20,12.30
2004,04,04,09,21,12.50
2004,04,04,09,22,12.60
2004,04,04,09,23,12.60
2004,04,04,09,24,12.60
2004,04,04,09,25,12.40
2004,04,04,09,26,12.30
2004,04,04,09,27,12.10
2004,04,04,09,28,12.00
2004,04,04,09,29,11.80
2004,04,04,09,30,11.70
2004,04,04,09,31,11.60
2004,04,04,09,32,11.60
2004,04,04,09,33,11.50
2004,04,04,09,34,11.50
2004,04,04,09,35,11.60
2004,04,04,09,36,11.80
2004,04,04,09,37,12.00
2004,04,04,09,38,12.20
2004,04,04,09,39,12.20
2004,04,04,09,40,12.20
2004,04,04,09,41,12.20
2004,04,04,09,42,12.30
2004,04,04,09,43,12.40
2004,04,04,09,44,12.50
2004,04,04,09,45,12.50
2004,04,04,09,46,12.50
2004,04,04,09,47,12.50
2004,04,04,09,48,12.50
2004,04,04,09,49,12.50
2004,04,04,09,50,12.40
2004,04,04,09,51,12.30
2004,04,04,09,52,12.20
2004,04,04,09,53,12.10
2004,04,04,09,54,12.10
2004,04,04,09,55,12.20
2004,04,04,09,56,12.10
2004,04,04,09,57,12.00
2004,04,04,09,58,12.00
2004,04,04,09,59,11.90
2004,04,04,10,00,11.90
2004,04,04,10,01,11.90
2004,04,04,10,02,11.80
2004,04,04,10,03,11.80
2004,04,04,10,04,11.70
2004,04,04,10,05,11.70
2004,04,04,10,06,11.70
2004,04,04,10,07,11.80
2004,04,04,10,08,11.80
2004,04,04,10,09,11.80
2004,04,04,10,10,11.80
2004,04,04,10,11,11.60
2004,04,04,10,12,11.60
2004,04,04,10,13,11.50
2004,04,04,10,14,11.40
2004,04,04,10,15,11.40
2004,04,04,10,16,11.40
2004,04,04,10,17,11.40
2004,04,04,10,18,11.40
2004,04,04,10,19,11.40
2004,04,04,10,20,11.40
2004,04,04,10,21,11.50
2004,04,04,10,22,11.60
2004,04,04,10,23,11.60
2004,04,04,10,24,11.70
2004,04,04,10,25,11.70
2004,04,04,10,26,11.80
2004,04,04,10,27,11.80
2004,04,04,10,28,11.80
2004,04,04,10,29,11.70
2004,04,04,10,30,11.70
2004,04,04,10,31,11.70
2004,04,04,10,32,11.80
2004,04,04,10,33,11.80
2004,04,04,10,34,11.80
2004,04,04,10,35,11.80
2004,04,04,10,36,11.80
2004,04,04,10,37,11.70
2004,04,04,10,38,11.70
2004,04,04,10,39,11.60
2004,04,04,10,40,11.60
2004,04,04,10,41,11.50
2004,04,04,10,42,11.50
2004,04,04,10,43,11.40
2004,04,04,10,44,11.40
2004,04,04,10,45,11.40
2004,04,04,10,46,11.40
2004,04,04,10,47,11.30
2004,04,04,10,48,11.30
2004,04,04,10,49,11.20
2004,04,04,10,50,11.10
2004,04,04,10,51,11.10
2004,04,04,10,52,11.20
2004,04,04,10,53,11.20
2004,04,04,10,54,11.30
2004,04,04,10,55,11.30
2004,04,04,10,56,11.40
2004,04,04,10,57,11.40
2004,04,04,10,58,11.40
2004,04,04,10,59,11.40
2004,04,04,11,00,11.40
2004,04,04,11,01,11.40
2004,04,04,11,02,11.50
2004,04,04,11,03,11.60
2004,04,04,11,04,11.60
2004,04,04,11,05,11.60
2004,04,04,11,06,11.60
2004,04,04,11,07,11.60
2004,04,04,11,08,11.60
2004,04,04,11,09,11.50
2004,04,04,11,10,11.40
2004,04,04,11,11,11.40
2004,04,04,11,12,11.40
2004,04,04,11,13,11.40
2004,04,04,11,14,11.40
2004,04,04,11,15,11.40
2004,04,04,11,16,11.30
2004,04,04,11,17,11.30
2004,04,04,11,18,11.30
2004,04,04,11,19,11.30
2004,04,04,11,20,11.20
2004,04,04,11,21,11.20
2004,04,04,11,22,11.20
2004,04,04,11,23,11.20
2004,04,04,11,24,11.20
2004,04,04,11,25,11.30
2004,04,04,11,26,11.40
2004,04,04,11,27,11.40
2004,04,04,11,28,11.40
2004,04,04,11,29,11.30
2004,04,04,11,30,11.30
2004,04,04,11,31,11.30
2004,04,04,11,32,11.30
2004,04,04,11,33,11.40
2004,04,04,11,34,11.40
2004,04,04,11,35,11.50
2004,04,04,11,36,11.40
2004,04,04,11,37,11.30
2004,04,04,11,38,11.40
2004,04,04,11,39,11.60
2004,04,04,11,40,11.70
2004,04,04,11,41,11.70
2004,04,04,11,42,11.70
2004,04,04,11,43,11.70
2004,04,04,11,44,11.70
2004,04,04,11,45,11.70
2004,04,04,11,46,11.70
2004,04,04,11,47,11.70
2004,04,04,11,48,11.70
2004,04,04,11,49,11.70
2004,04,04,11,50,11.60
2004,04,04,11,51,11.60
2004,04,04,11,52,11.70
2004,04,04,11,53,11.70
2004,04,04,11,54,11.60
2004,04,04,11,55,11.50
2004,04,04,11,56,11.60
2004,04,04,11,57,11.70
2004,04,04,11,58,11.80
2004,04,04,11,59,11.80
2004,04,04,12,00,11.80
2004,04,04,12,01,11.90
2004,04,04,12,02,12.00
2004,04,04,12,03,12.20
2004,04,04,12,04,12.30
2004,04,04,12,05,12.40
2004,04,04,12,06,12.40
2004,04,04,12,07,12.40
2004,04,04,12,08,12.30
2004,04,04,12,09,12.30
2004,04,04,12,10,12.20
2004,04,04,12,11,12.20
2004,04,04,12,12,12.10
2004,04,04,12,13,12.10
2004,04,04,12,14,12.20
2004,04,04,12,15,12.30
2004,04,04,12,16,12.40
2004,04,04,12,17,12.40
2004,04,04,12,18,12.40
2004,04,04,12,19,12.40
2004,04,04,12,20,12.50
2004,04,04,12,21,12.60
2004,04,04,12,22,12.60
2004,04,04,12,23,12.50
2004,04,04,12,24,12.50
2004,04,04,12,25,12.50
2004,04,04,12,26,12.70
2004,04,04,12,27,12.80
2004,04,04,12,28,12.90
2004,04,04,12,29,12.80
2004,04,04,12,30,12.80
2004,04,04,12,31,12.80
2004,04,04,12,32,12.70
2004,04,04,12,33,12.70
2004,04,04,12,34,12.70
2004,04,04,12,35,12.70
2004,04,04,12,36,12.60
2004,04,04,12,37,12.60
2004,04,04,12,38,12.50
2004,04,04,12,39,12.40
2004,04,04,12,40,12.30
2004,04,04,12,41,12.40
2004,04,04,12,42,12.50
2004,04,04,12,43,12.60
2004,04,04,12,44,12.60
2004,04,04,12,45,12.60
2004,04,04,12,46,12.70
2004,04,04,12,47,12.70
2004,04,04,12,48,12.80
2004,04,04,12,49,12.80
2004,04,04,12,50,12.80
2004,04,04,12,51,12.70
2004,04,04,12,52,12.60
2004,04,04,12,53,12.70
2004,04,04,12,54,12.80
2004,04,04,12,55,12.80
2004,04,04,12,56,12.90
2004,04,04,12,57,12.90
2004,04,04,12,58,12.80
2004,04,04,12,59,12.80
2004,04,04,13,00,12.70
2004,04,04,13,01,12.70
2004,04,04,13,02,12.70
2004,04,04,13,03,12.70
2004,04,04,13,04,12.70
2004,04,04,13,05,12.70
2004,04,04,13,06,12.80
2004,04,04,13,07,12.80
2004,04,04,13,08,12.70
2004,04,04,13,09,12.70
2004,04,04,13,10,12.80
2004,04,04,13,11,12.80
2004,04,04,13,12,12.90
2004,04,04,13,13,12.70
2004,04,04,13,14,12.50
2004,04,04,13,15,12.60
2004,04,04,13,16,12.60
2004,04,04,13,17,12.60
2004,04,04,13,18,12.70
2004,04,04,13,19,12.80
2004,04,04,13,20,12.80
2004,04,04,13,21,12.90
2004,04,04,13,22,13.10
2004,04,04,13,23,13.20
2004,04,04,13,24,13.30
2004,04,04,13,25,13.40
2004,04,04,13,26,13.40
2004,04,04,13,27,13.60
2004,04,04,13,28,13.70
2004,04,04,13,29,13.80
2004,04,04,13,30,13.70
2004,04,04,13,31,13.70
2004,04,04,13,32,13.80
2004,04,04,13,33,14.00
2004,04,04,13,34,14.10
2004,04,04,13,35,14.10
2004,04,04,13,36,14.20
2004,04,04,13,37,14.10
2004,04,04,13,38,14.00
2004,04,04,13,39,13.90
2004,04,04,13,40,13.90
2004,04,04,13,41,13.90
2004,04,04,13,42,13.90
2004,04,04,13,43,13.90
2004,04,04,13,44,13.90
2004,04,04,13,45,13.80
2004,04,04,13,46,13.70
2004,04,04,13,47,13.70
2004,04,04,13,48,13.70
2004,04,04,13,49,13.70
2004,04,04,13,50,13.80
2004,04,04,13,51,13.80
2004,04,04,13,52,13.90
2004,04,04,13,53,13.80
2004,04,04,13,54,13.60
2004,04,04,13,55,13.60
2004,04,04,13,56,13.70
2004,04,04,13,57,13.60
2004,04,04,13,58,13.40
2004,04,04,13,59,13.40
2004,04,04,14,00,13.40
2004,04,04,14,01,13.60
2004,04,04,14,02,13.60
2004,04,04,14,03,13.70
2004,04,04,14,04,13.70
2004,04,04,14,05,13.60
2004,04,04,14,06,13.60
2004,04,04,14,07,13.60
2004,04,04,14,08,13.70
2004,04,04,14,09,13.80
2004,04,04,14,10,13.80
2004,04,04,14,11,13.80
2004,04,04,14,12,13.90
2004,04,04,14,13,14.10
2004,04,04,14,14,14.20
2004,04,04,14,15,14.50
2004,04,04,14,16,14.60
2004,04,04,14,17,14.60
2004,04,04,14,18,14.60
2004,04,04,14,19,14.40
2004,04,04,14,20,14.30
2004,04,04,14,21,14.20
2004,04,04,14,22,14.10
2004,04,04,14,23,14.10
2004,04,04,14,24,14.20
2004,04,04,14,25,14.30
2004,04,04,14,26,14.40
2004,04,04,14,27,14.40
2004,04,04,14,28,14.50
2004,04,04,14,29,14.50
2004,04,04,14,30,14.40
2004,04,04,14,31,14.00
2004,04,04,14,32,13.70
2004,04,04,14,33,13.70
2004,04,04,14,34,13.70
2004,04,04,14,35,13.70
2004,04,04,14,36,13.60
2004,04,04,14,37,13.30
2004,04,04,14,38,13.30
2004,04,04,14,39,13.40
2004,04,04,14,40,13.30
2004,04,04,14,41,13.20
2004,04,04,14,42,13.20
2004,04,04,14,43,13.10
2004,04,04,14,44,13.00
2004,04,04,14,45,13.00
2004,04,04,14,46,13.00
2004,04,04,14,47,12.90
2004,04,04,14,48,12.80
2004,04,04,14,49,12.90
2004,04,04,14,50,13.10
2004,04,04,14,51,13.20
2004,04,04,14,52,13.20
2004,04,04,14,53,13.20
2004,04,04,14,54,13.20
2004,04,04,14,55,13.30
2004,04,04,14,56,13.30
2004,04,04,14,57,13.20
2004,04,04,14,58,13.20
2004,04,04,14,59,13.20
2004,04,04,15,00,13.20
2004,04,04,15,01,13.30
2004,04,04,15,02,13.20
2004,04,04,15,03,13.20
2004,04,04,15,04,13.10
2004,04,04,15,05,13.00
2004,04,04,15,06,12.90
2004,04,04,15,07,12.90
2004,04,04,15,08,12.90
2004,04,04,15,09,12.80
2004,04,04,15,10,12.80
2004,04,04,15,11,12.80
2004,04,04,15,12,12.70
2004,04,04,15,13,12.60
2004,04,04,15,14,12.50
2004,04,04,15,15,12.40
2004,04,04,15,16,12.40
2004,04,04,15,17,12.50
2004,04,04,15,18,12.60
2004,04,04,15,19,12.50
2004,04,04,15,20,12.50
2004,04,04,15,21,12.50
2004,04,04,15,22,12.50
2004,04,04,15,23,12.50
2004,04,04,15,24,12.50
2004,04,04,15,25,12.50
2004,04,04,15,26,12.60
2004,04,04,15,27,12.60
2004,04,04,15,28,12.70
2004,04,04,15,29,12.70
2004,04,04,15,30,12.80
2004,04,04,15,31,12.80
2004,04,04,15,32,12.80
2004,04,04,15,33,13.00
2004,04,04,15,34,13.00
2004,04,04,15,35,13.00
2004,04,04,15,36,13.00
2004,04,04,15,37,13.00
2004,04,04,15,38,12.90
2004,04,04,15,39,13.10
2004,04,04,15,40,13.40
2004,04,04,15,41,13.40
2004,04,04,15,42,13.40
2004,04,04,15,43,13.20
2004,04,04,15,44,13.00
2004,04,04,15,45,13.10
2004,04,04,15,46,13.20
2004,04,04,15,47,13.20
2004,04,04,15,48,13.30
2004,04,04,15,49,13.20
2004,04,04,15,50,13.20
2004,04,04,15,51,13.20
2004,04,04,15,52,13.20
2004,04,04,15,53,13.10
2004,04,04,15,54,13.00
2004,04,04,15,55,13.00
2004,04,04,15,56,12.90
2004,04,04,15,57,12.80
2004,04,04,15,58,12.80
2004,04,04,15,59,12.80
2004,04,04,16,00,12.80
2004,04,04,16,01,12.90
2004,04,04,16,02,12.90
2004,04,04,16,03,12.90
2004,04,04,16,04,12.90
2004,04,04,16,05,13.00
2004,04,04,16,06,13.00
2004,04,04,16,07,13.10
2004,04,04,16,08,13.10
2004,04,04,16,09,13.10
2004,04,04,16,10,13.20
2004,04,04,16,11,13.50
2004,04,04,16,12,13.90
2004,04,04,16,13,14.20
2004,04,04,16,14,14.50
2004,04,04,16,15,14.60
2004,04,04,16,16,14.70
2004,04,04,16,17,14.90
2004,04,04,16,18,15.10
2004,04,04,16,19,15.20
2004,04,04,16,20,15.30
2004,04,04,16,21,15.40
2004,04,04,16,22,15.70
2004,04,04,16,23,15.70
2004,04,04,16,24,15.80
2004,04,04,16,25,15.90
2004,04,04,16,26,15.80
2004,04,04,16,27,16.00
2004,04,04,16,28,16.10
2004,04,04,16,29,15.90
2004,04,04,16,30,15.70
2004,04,04,16,31,15.50
2004,04,04,16,32,15.50
2004,04,04,16,33,15.50
2004,04,04,16,34,15.40
2004,04,04,16,35,15.30
2004,04,04,16,36,15.20
2004,04,04,16,37,15.10
2004,04,04,16,38,15.00
2004,04,04,16,39,15.30
2004,04,04,16,40,15.30
2004,04,04,16,41,15.40
2004,04,04,16,42,15.50
2004,04,04,16,43,15.60
2004,04,04,16,44,15.70
2004,04,04,16,45,15.60
2004,04,04,16,46,15.70
2004,04,04,16,47,15.60
2004,04,04,16,48,15.70
2004,04,04,16,49,15.70
2004,04,04,16,50,15.70
2004,04,04,16,51,15.80
2004,04,04,16,52,15.80
2004,04,04,16,53,15.70
2004,04,04,16,54,15.60
2004,04,04,16,55,15.60
2004,04,04,16,56,15.50
2004,04,04,16,57,15.40
2004,04,04,16,58,15.30
2004,04,04,16,59,15.40
2004,04,04,17,00,15.40
2004,04,04,17,01,15.40
2004,04,04,17,02,15.40
2004,04,04,17,03,15.20
2004,04,04,17,04,15.10
2004,04,04,17,05,14.90
2004,04,04,17,06,14.90
2004,04,04,17,07,14.80
2004,04,04,17,08,14.90
2004,04,04,17,09,15.00
2004,04,04,17,10,14.90
2004,04,04,17,11,14.70
2004,04,04,17,12,14.70
2004,04,04,17,13,14.50
2004,04,04,17,14,14.60
2004,04,04,17,15,14.70
2004,04,04,17,16,14.80
2004,04,04,17,17,14.80
2004,04,04,17,18,14.80
2004,04,04,17,19,14.70
2004,04,04,17,20,14.70
2004,04,04,17,21,14.70
2004,04,04,17,22,14.80
2004,04,04,17,23,14.80
2004,04,04,17,24,14.80
2004,04,04,17,25,14.80
2004,04,04,17,26,14.90
2004,04,04,17,27,14.80
2004,04,04,17,28,14.80
2004,04,04,17,29,14.80
2004,04,04,17,30,14.70
2004,04,04,17,31,14.50
2004,04,04,17,32,14.30
2004,04,04,17,33,14.20
2004,04,04,17,34,14.20
2004,04,04,17,35,14.20
2004,04,04,17,36,14.40
2004,04,04,17,37,14.50
2004,04,04,17,38,14.70
2004,04,04,17,39,14.80
2004,04,04,17,40,15.00
2004,04,04,17,41,15.10
2004,04,04,17,42,15.20
2004,04,04,17,43,15.30
2004,04,04,17,44,15.20
2004,04,04,17,45,15.10
2004,04,04,17,46,15.00
2004,04,04,17,47,15.00
2004,04,04,17,48,14.90
2004,04,04,17,49,14.80
2004,04,04,17,50,14.70
2004,04,04,17,51,14.60
2004,04,04,17,52,14.60
2004,04,04,17,53,14.50
2004,04,04,17,54,14.40
2004,04,04,17,55,14.40
2004,04,04,17,56,14.40
2004,04,04,17,57,14.30
2004,04,04,17,58,14.20
2004,04,04,17,59,14.20
2004,04,04,18,00,14.10
2004,04,04,18,01,14.20
2004,04,04,18,02,14.20
2004,04,04,18,03,14.10
2004,04,04,18,04,14.00
2004,04,04,18,05,14.10
2004,04,04,18,06,14.00
2004,04,04,18,07,14.00
2004,04,04,18,08,14.00
2004,04,04,18,09,14.10
2004,04,04,18,10,14.20
2004,04,04,18,11,14.20
2004,04,04,18,12,14.20
2004,04,04,18,13,14.20
2004,04,04,18,14,14.20
2004,04,04,18,15,14.20
2004,04,04,18,16,14.40
2004,04,04,18,17,14.50
2004,04,04,18,18,14.50
2004,04,04,18,19,14.40
2004,04,04,18,20,14.60
2004,04,04,18,21,14.60
2004,04,04,18,22,14.70
2004,04,04,18,23,14.70
2004,04,04,18,24,14.70
2004,04,04,18,25,14.60
2004,04,04,18,26,14.50
2004,04,04,18,27,14.40
2004,04,04,18,28,14.30
2004,04,04,18,29,14.40
2004,04,04,18,30,14.40
2004,04,04,18,31,14.50
2004,04,04,18,32,14.40
2004,04,04,18,33,14.40
2004,04,04,18,34,14.30
2004,04,04,18,35,14.30
2004,04,04,18,36,14.20